sat.trackr.live / text

‹ back to catalog

STARLINK-3128

NORAD 49441 · 2021-104AK

PAYLOAD ACTIVE UNKNOWN

§ Identity

Operator
Country
US
Launch date
2021-11-13
Launch site
AFETR
Launch vehicle
Mass (kg)
RCS (m²)

Purposes: comms

External: N2YO · Heavens-Above · Gunter

§ Orbital elements

Epoch: 2026-05-24T15:31:37.901280Z

Period
95.44 min
Inclination
53.2156°
Eccentricity
0.0001128
Mean motion
15.08838489 rev/d
Perigee alt
539.0 km
Apogee alt
540.5 km
Semi-major
6,917.9 km
B*
1.8071e-6
RAAN
228.1319°
Arg perigee
91.8034°
Mean anomaly
268.3088°
Rev number
25,038

§ Raw data

STARLINK-31281 49441U 21104AK  26144.64696645 -.00000259  00000+0  18071-5 0  99912 49441  53.2156 228.1319 0001128  91.8034 268.3088 15.08838489250386

JSON: /api/v1/satellites/49441 · /tle

For live sub-satellite position, see the globe view (requires WebGL).

§ Visibility from observer

Set your observer location to see the next 7 days of passes ≥ 10°. The values pass through the URL so the page stays shareable.

No JS? Fill the form by hand. The geolocation button needs JavaScript.